Location: Córrego Montividiu
(13.2496°S, 48.8603°W)
Time: 10:54:33
(UTC+00:00)

Cosmos 1954 Rocket - Pass Details

Date: 11 March 2026
Orbit: 747 x 777 km, 74.0° (Epoch: 22 April)

Event Time Altitude Azimuth Distance (km) Brightness Sun altitude
Rises 22:20:38 0° 182° (S) 3,206 7.3 -12.6°
Reaches altitude 10° 22:23:07 10° 175° (S) 2,279 6.5 -13.2°
Maximum altitude 22:28:00 43° 104° (ESE) 1,057 4.3 -14.4°
Enters shadow 22:32:40 11° 34° (NE) 2,199 6.0 -15.5°
